Dewpoint
68 69 70 70 70 70 70 70 70 70 70 70 71 70 70 71 71 71 71 71 70 69 68 68 68 67 66 66 65 65 64 63
60 68 69 69 70 69 69 69 69 69 69 69 69 69 69 70 70 70 71 70 69 69 68 67 67 66 66 65 64 64 64 64
44 47 50 64 69 70 69 69 69 69 69 69 68 69 69 69 69 69 70 70 69 68 67 67 66 66 65 64 64 61 63 65
37 42 48 48 60 69 70 69 70 70 70 69 70 69 68 69 69 69 69 69 68 67 67 66 66 64 64 64 61 62 64 64
36 40 44 46 49 57 69 69 69 69 68 69 69 69 69 69 69 69 69 69 67 66 66 65 64 63 62 62 61 62 64 64
35 38 41 42 47 50 53 55 67 69 68 68 68 68 68 68 68 68 68 68 66 65 65 64 63 63 62 62 61 61 64 64
34 35 37 40 42 46 48 50 55 62 68 69 69 68 67 67 67 67 67 67 66 65 64 64 63 62 63 62 61 61 63 63
33 33 34 37 38 41 44 49 53 54 62 69 69 69 68 67 67 66 66 66 66 65 64 64 63 62 62 63 62 61 62 63
32 32 33 33 36 39 42 46 49 52 54 59 68 67 67 67 67 66 66 66 66 65 64 63 63 62 62 62 63 62 62 63
31 31 33 33 35 38 39 43 46 48 51 55 63 67 67 67 67 67 67 66 65 65 64 63 62 62 61 62 62 63 62 62
30 31 32 33 34 37 39 40 42 46 48 51 53 62 66 66 67 67 67 67 66 65 64 62 62 61 61 61 62 63 62 62
30 31 32 32 34 36 37 38 39 42 46 49 51 52 61 66 66 67 67 66 66 65 64 63 61 61 60 59 61 62 61 61
30 31 32 32 32 33 35 36 38 40 44 46 49 53 55 65 65 65 66 66 65 65 64 62 61 62 60 59 59 61 62 59
30 31 31 32 33 33 35 36 39 40 43 46 48 50 52 57 64 65 65 66 64 65 64 63 62 62 60 58 56 58 59 61
30 30 31 31 32 33 34 35 38 40 40 42 45 48 51 52 54 64 64 65 63 62 65 63 62 62 61 58 53 55 56 58
30 30 31 31 32 32 33 33 35 38 40 42 43 45 48 51 53 58 63 64 64 64 65 64 63 61 62 61 57 56 54 53
30 30 30 32 32 33 33 33 35 38 39 41 42 44 46 49 53 58 62 63 62 64 62 64 64 62 61 61 57 55 55 53
29 29 30 30 31 32 31 33 35 37 37 39 41 43 44 46 51 55 60 62 61 61 61 62 63 63 62 62 60 57 56 54
29 29 29 30 30 31 33 35 35 35 37 37 39 41 42 44 49 54 56 59 60 61 61 59 59 59 62 62 61 60 59 57
28 28 30 29 30 31 31 34 35 36 36 37 38 40 42 45 48 51 53 55 57 61 60 60 60 58 62 62 62 61 61 59
Lifted_Index
-5 -6 -6 -6 -6 -6 -6 -6 -5 -5 -6 -6 -6 -6 -6 -5 -5 -5 -5 -4 -3 -2 -1 -1 -0 -0 0 1 1 1 1 1
-4 -5 -5 -5 -5 -6 -6 -5 -5 -5 -5 -5 -6 -6 -5 -5 -5 -5 -5 -5 -3 -2 -1 -1 -0 0 1 1 1 1 1 1
0 -1 -2 -3 -4 -5 -5 -5 -5 -5 -5 -5 -5 -5 -5 -5 -5 -5 -5 -5 -4 -2 -1 -1 -0 0 1 1 1 1 1 1
6 5 3 2 -1 -3 -4 -5 -5 -5 -5 -5 -5 -5 -5 -5 -5 -5 -5 -5 -4 -3 -2 -1 -0 0 1 1 1 0 0 0
9 9 8 7 4 1 -3 -4 -4 -5 -5 -5 -5 -5 -5 -5 -5 -5 -5 -5 -4 -3 -2 -1 -0 0 1 1 1 0 0 0
10 10 10 9 8 5 1 -1 -3 -4 -5 -5 -5 -5 -5 -5 -5 -5 -5 -5 -4 -3 -2 -1 -0 0 1 1 1 1 -0 -0
9 9 10 10 9 8 6 4 2 -1 -3 -5 -5 -5 -5 -5 -5 -5 -5 -5 -4 -3 -2 -1 -0 0 1 1 1 1 0 -0
9 9 10 10 10 10 9 8 6 3 -1 -3 -5 -5 -5 -5 -5 -5 -5 -5 -4 -3 -2 -1 -0 0 0 0 0 0 -0 -0
10 10 10 10 10 10 10 10 9 7 3 -0 -3 -4 -5 -5 -5 -5 -5 -4 -4 -3 -2 -1 -0 -0 0 -1 -1 -1 -1 -1
10 10 10 10 10 10 10 10 10 9 7 4 1 -2 -4 -4 -4 -5 -5 -4 -4 -3 -3 -2 -1 -0 -0 -1 -1 -2 -2 -1
11 11 10 10 10 10 10 11 11 10 10 8 5 1 -2 -4 -4 -4 -4 -5 -4 -4 -3 -3 -1 -0 -0 -1 -1 -2 -2 -2
11 11 11 11 11 11 11 11 11 11 10 10 8 5 1 -3 -4 -4 -4 -4 -4 -4 -4 -3 -2 -1 -1 -1 -1 -2 -2 -2
11 11 11 11 11 11 11 11 11 11 11 10 9 8 4 -0 -3 -4 -4 -4 -4 -4 -4 -4 -3 -2 -1 -2 -2 -2 -2 -2
11 11 12 12 12 12 12 13 13 12 11 10 10 9 6 3 -1 -3 -4 -3 -3 -3 -3 -4 -3 -3 -2 -2 -2 -2 -3 -3
11 12 13 13 14 13 13 13 13 13 12 11 10 9 8 6 3 -1 -3 -3 -2 -2 -3 -3 -4 -3 -3 -2 -2 -2 -3 -3
11 12 12 13 14 13 13 13 13 13 13 11 10 9 8 7 5 2 -1 -2 -2 -2 -2 -3 -3 -3 -3 -3 -3 -2 -2 -2
11 11 11 12 13 13 13 13 13 13 13 11 10 8 8 7 6 3 0 -2 -2 -1 -1 -2 -3 -4 -3 -3 -3 -3 -2 -2
10 10 10 11 12 13 13 14 14 14 14 12 10 8 7 7 6 5 2 -0 -1 -1 -1 -1 -1 -3 -3 -4 -4 -3 -3 -3
10 9 9 10 11 12 14 14 15 15 15 14 12 10 8 7 7 5 3 1 -0 -1 -1 0 0 -1 -2 -4 -4 -4 -4 -4
10 10 9 10 11 12 14 15 15 16 16 15 13 11 10 8 7 6 4 2 1 -0 -1 0 1 0 -2 -3 -4 -4 -4 -4